Location: Ajisawe
(8.4333°N, 4.3833°E)
Time: 05:57:08
(UTC+00:00)

A-11 Canister half - Pass Details

Date: 21 April 2021
Orbit: 1514 x 1685 km, 47.2° (Epoch: 12 May)

Event Time Altitude Azimuth Distance (km) Brightness Sun altitude
Rises 04:31:07 0° 321° (NW) 4,880 11.4 -15.1°
Reaches altitude 10° 04:34:14 10° 322° (NW) 3,909 10.9 -14.4°
Maximum altitude 04:44:21 81° 50° (NE) 1,699 9.3 -12.0°
Drops below altitude 10° 04:54:32 10° 137° (SE) 3,936 11.6 -9.5°
Sets 04:57:41 0° 138° (SE) 4,915 12.1 -8.8°
